{"data":{"norad_id":53082,"intl_designator":"2022-077AR","name":"STARLINK-4321","alt_names":[],"object_type":"PAYLOAD","status":"ACTIVE","operator":null,"country":"US","launch_date":"2022-07-11","launch_site_code":"AFWTR","launch_vehicle":null,"mission":null,"orbit_class":"UNKNOWN","rcs_meters":null,"size_class":null,"mass_kg":null,"dimensions":null,"purposes":["comms"],"wikipedia_slug":null,"has_3d_model":false,"image_url":null,"decayed_at":null,"tle_current":{"epoch":"2026-09-19T16:59:49.470144Z","epoch_age_seconds":140728,"freshness":"FRESH","line1":"1 53082U 22077AR  26262.70821146  .00000037  00000+0  34656-5 0  9991","line2":"2 53082  97.2844  77.5216 0002090  89.5141 270.6341 15.33430225230175","mean_motion":15.33430225,"eccentricity":0.000209,"inclination_deg":97.2844,"raan_deg":77.5216,"arg_perigee_deg":89.5141,"mean_anomaly_deg":270.6341,"bstar":3.4656e-6,"rev_number":23017,"period_min":93.907109467599,"perigee_km":464.15679649182,"apogee_km":467.01747318019,"semimajor_km":6843.724134836,"source":"CELESTRAK","updated_at":"2026-09-20T09:00:40.176957Z"}}}